Location: Berg
(47.2344°N, 9.5296°E)
Time: 21:05:16
(UTC+00:00)

NOSS 3-1 (C) - Pass Details

Date: 24 January 2021
Orbit: 723 x 1485 km, 63.3° (Epoch: 03 March)

Event Time Altitude Azimuth Distance (km) Brightness Sun altitude
Rises 18:12:45 0° 319° (NW) 3,922 7.2 -20.3°
Reaches altitude 10° 18:15:15 10° 317° (NW) 3,063 6.6 -20.7°
Maximum altitude 18:22:44 75° 235° (SW) 1,350 4.2 -22.0°
Drops below altitude 10° 18:31:27 10° 152° (SSE) 3,536 6.2 -23.5°
Sets 18:34:32 0° 150° (SSE) 4,557 6.7 -24.0°
